Miscellaneous Local Product
Issued by NWS North Platte, NE

Home | Current Version | Previous Version | Text Only | Print | Product List | Glossary On
Versions: 1 2 3 4 5 6 7 8 9 10 11 12 13 14 15 16 17 18 19 20 21 22 23 24 25 26 27 28 29 30 31 32 33 34 35 36 37 38 39 40 41 42 43 44 45 46 47 48 49 50
000
AXUS43 KLBF 250610
MISLBF


WESTERN AND NORTH CENTRAL NEBRASKA HOURLY WEATHER ROUNDUP
NATIONAL WEATHER SERVICE NORTH PLATTE NE
100 AM CDT MON MAY 25 2015

***STATIONS NOT REPORTING VARIABLES SUCH AS SKY/WEATHER OR
PRESSURE ARE PROVIDED BY THE NEBRASKA DEPARTMENT OF
ROADS...RAWS...AND APRS NETWORKS...AND ARE NOT UNDER
NATIONAL WEATHER SERVICE QUALITY CONTROL***

...OBSERVATIONS IN AND NEAR THE EASTERN PANHANDLE OF NEBRASKA...

CITY           SKY/WX    TMP DP  RH WIND       PRES   REMARKS
PINE RIDGE     CLOUDY    55  53  93 NE9       29.82F
CHADRON        CLOUDY    53  50  89 NE5       29.82S
ALLIANCE       CLOUDY    51  50  96 N7        29.83F
SIDNEY         CLOUDY    51  47  86 NE8       29.84S
WHITECLAY        N/A     51  49  93 CALM        N/A
BIG SPRINGS      N/A     53  51  94 W3          N/A
$$

...OBSERVATIONS IN NORTH CENTRAL NEBRASKA...

CITY           SKY/WX    TMP DP  RH WIND       PRES   REMARKS
VALENTINE      CLOUDY    58  57  97 NE6       29.81F
THEDFORD       RAIN      57  52  84 W18G25    29.81S
AINSWORTH      CLOUDY    58  58 100 SE7       29.81S FOG
O`NEILL        FOG       58  58  99 CALM      29.79F VSB 1/4
ORD            CLOUDY    58  56  93 CALM      29.79S FOG
BROKEN BOW     CLOUDY    59  54  83 NW3       29.78F
VALENTINE NWR    N/A     56  56  99 E8          N/A
SPRINGVIEW       N/A     57  55  95 CALM        N/A
HALSEY           N/A     58  57  96 SE5         N/A
ROSE             N/A     58  58  99 CALM        N/A
NEWPORT          N/A     57  57  99 CALM        N/A
SARGENT          N/A     58  57  96 CALM        N/A
COMSTOCK         N/A     62  62  99 CALM        N/A
EWING            N/A     59  58  96 CALM        N/A
$$

...OBSERVATIONS IN SOUTHWEST NEBRASKA AND FAR NORTHEAST COLORADO...

CITY           SKY/WX    TMP DP  RH WIND       PRES   REMARKS
WRAY           FAIR     N/A N/A N/A W7        29.80F
IMPERIAL       CLOUDY    52  49  89 SW6       29.77F
OGALLALA       LGT RAIN  52  51  98 NW6       29.80S
NORTH PLATTE   CLOUDY    53  51  93 E3        29.79F
MCCOOK         HVY RAIN  54  52  93 S10       29.82R FOG
LEXINGTON      CLOUDY    54  52  93 CALM      29.79F
PAXTON           N/A     53  51  93 N5          N/A
GOTHENBURG       N/A     52  48  87 CALM        N/A
CALLAWAY         N/A     54  52  94 N3          N/A
$$

...NORTH PLATTE AREA...

CITY           SKY/WX    TMP DP  RH WIND       PRES   REMARKS
AIRPORT        CLOUDY    53  51  93 E3        29.79F
DOWNTOWN         N/A     53  51  93 CALM        N/A
$$

...SOME WEATHER OBSERVATIONS FROM AROUND THE REGION...

CITY           SKY/WX    TMP DP  RH WIND       PRES   REMARKS
DENVER         MOCLDY    47  44  90 CALM      29.89S
LARAMIE        CLOUDY    38  36  92 W3        29.93S
CHEYENNE       CLOUDY    45  39  79 N8        29.89F
SCOTTSBLUFF    CLOUDY    54  50  86 E10       29.85S
RAPID CITY     MOCLDY    53  52  96 N13       29.85F
PIERRE         CLOUDY    57  56  96 E6        29.80S FOG
WINNER         FOG       60  57  89 E3        29.80F VSB 1/2
SIOUX FALLS    CLOUDY    59  58  96 N5        29.75F
OMAHA          CLOUDY    66  60  81 S5        29.77F
GRAND ISLAND   MOCLDY    60  59  96 S7        29.80S
KANSAS CITY    CLOUDY    62  62 100 SW3       29.83S
WICHITA        MOCLDY    60  58  92 S12       29.84F
HAYS           CLOUDY    55  48  76 S3        29.85F
LIBERAL        CLOUDY    64  59  82 SW10G17   29.79R
GOODLAND       CLOUDY    52  50  93 S15       29.83R
$$



USA.gov is the U.S. government's official web portal to all federal, state and local government web resources and services.